Terminal Aerodrome Forecast
Issued by NWS Quad Cities IA IL

Home | Current Version | Previous Version | Text Only | Print | Product List | Glossary On
Versions: 1 2 3 4 5 6 7 8 9 10 11 12 13 14 15 16 17
000
FTUS43 KDVN 301900 AAA
TAFDBQ
TAF AMD
KDBQ 301908Z 3019/0118 09008KT P6SM SCT030
     FM010100 12009KT P6SM BKN250
     FM011200 13008KT 4SM BR BKN025 OVC070
      AMD NOT SKED=

USA.gov is the U.S. government's official web portal to all federal, state and local government web resources and services.